This is the latest recevied weather packets stored in our database for station/object K3PPP. If no packets are shown the sender has not sent any weather packets the latest 10 day(s).
| Time | Temp. | Humidity | Pressure | Rain* | Wind** | Luminosity | Snow |
|---|---|---|---|---|---|---|---|
| 1777576985 | 6.11° C | 88% | 1012.5 hPa | 0 mm | - | 190 W/m² | - |
| 1777576682 | 5.56° C | 89% | 1012.6 hPa | 0 mm | - | 205 W/m² | - |
| 1777576381 | 6.11° C | 89% | 1012.5 hPa | 0 mm | - | 159 W/m² | - |
| 1777576078 | 5.56° C | 90% | 1012.4 hPa | 0 mm | - | 401 W/m² | - |
| 1777575774 | 5° C | 91% | 1012.3 hPa | 0 mm | - | 119 W/m² | - |
| 1777575470 | 5.56° C | 91% | 1012.5 hPa | 0 mm | - | 79 W/m² | - |
| 1777575166 | 5.56° C | 91% | 1012.3 hPa | 0 mm | - | 95 W/m² | - |
| 1777574862 | 5.56° C | 91% | 1012.3 hPa | 0 mm | - | 202 W/m² | - |
| 1777574560 | 5.56° C | 90% | 1012.2 hPa | 0 mm | - | 139 W/m² | - |
| 1777574256 | 5.56° C | 91% | 1012.1 hPa | 0 mm | - | 143 W/m² | - |
| 1777573951 | 5.56° C | 91% | 1011.9 hPa | 0 mm | - | 126 W/m² | - |
| 1777573645 | 5.56° C | 91% | 1012.2 hPa | 0 mm | - | 105 W/m² | - |
| 1777573342 | 6.11° C | 90% | 1012.1 hPa | 0 mm | - | 132 W/m² | - |
| 1777573037 | 6.11° C | 92% | 1011.7 hPa | 0 mm | - | 256 W/m² | - |
| 1777572734 | 5.56° C | 93% | 1011.8 hPa | 0 mm | - | 262 W/m² | - |
| 1777572430 | 6.11° C | 92% | 1011.8 hPa | 0 mm | - | 116 W/m² | - |
| 1777572126 | 6.67° C | 91% | 1011.8 hPa | 0 mm | - | 105 W/m² | - |
| 1777571821 | 7.78° C | 90% | 1011.7 hPa | 0 mm | - | 248 W/m² | - |
| 1777571518 | 6.67° C | 92% | 1012.1 hPa | 0 mm | - | 453 W/m² | - |
| 1777571215 | 6.11° C | 93% | 1011.8 hPa | 0 mm | - | 797 W/m² | - |
| 1777570910 | 6.11° C | 93% | 1011.7 hPa | 0 mm | - | 141 W/m² | - |
| 1777570605 | 7.22° C | 94% | 1011.6 hPa | 0 mm | - | 243 W/m² | - |
| 1777570303 | 6.67° C | 96% | 1011.5 hPa | 0 mm | - | 297 W/m² | - |
| 1777569998 | 6.67° C | 96% | 1011.5 hPa | 0 mm | - | 218 W/m² | - |
| 1777569689 | 6.11° C | 97% | 1011.8 hPa | 0 mm | - | 372 W/m² | - |
* Rain latest hour (hover to see other rain measurements)
** Current wind speed in m/s (hover to see current wind gust speed)